sat.trackr.live / text

‹ back to catalog

STARLINK-35746

NORAD 66582 · 2025-268AB

PAYLOAD ACTIVE UNKNOWN

§ Identity

Operator
Country
US
Launch date
2025-11-21
Launch site
AFETR
Launch vehicle
Mass (kg)
RCS (m²)

Purposes: comms

External: N2YO · Heavens-Above · Gunter

§ Orbital elements

Epoch: 2026-09-20T11:32:12.119712Z

Period
94.27 min
Inclination
43.0041°
Eccentricity
0.0001685
Mean motion
15.27586793 rev/d
Perigee alt
481.9 km
Apogee alt
484.2 km
Semi-major
6,861.2 km
B*
6.8423e-4
RAAN
326.7134°
Arg perigee
279.0271°
Mean anomaly
81.0390°
Rev number
4,775

§ Raw data

STARLINK-357461 66582U 25268AB  26263.48069583  .00018618  00000+0  68423-3 0  99912 66582  43.0041 326.7134 0001685 279.0271  81.0390 15.27586793 47752

JSON: /api/v1/satellites/66582 · /tle

For live sub-satellite position, see the globe view (requires WebGL).

§ Visibility from observer

Set your observer location to see the next 7 days of passes ≥ 10°. The values pass through the URL so the page stays shareable.

No JS? Fill the form by hand. The geolocation button needs JavaScript.